CHH7648 ZGSD-ZSHC

Flight info

Callsign CHH7648
Flight time 1h 29m
Altitude 35100
Route DCT ZAO DCT GUBL0 W22 SHL G471 EGEDA/K0856S1160 G471 PLT/K0841S1130 A599
Aircraft B738/M-SDE2E3FGILRWXY/LB2

Departure

Time 2026-04-24 09:25
Airport Zhuhai Jinwan Airport (ZGSD)

Arrival

Time 2026-04-24 10:54
Airport Hangzhou Xiaoshan International Airport (ZSHC)
Time Latitude Longitude Altitude Speed Heading
2026-04-24 08:54 22.00848 113.37205 27 ft 0 kts 44°
2026-04-24 09:08 22.00839 113.37195 27 ft 3 kts 44°
2026-04-24 09:08 22.00826 113.37181 25 ft 2 kts 44°
2026-04-24 09:08 22.00814 113.37167 27 ft 3 kts 70°
2026-04-24 09:08 22.00812 113.37148 27 ft 3 kts 105°
2026-04-24 09:09 22.00819 113.37129 27 ft 3 kts 127°
2026-04-24 09:09 22.00827 113.37118 27 ft 1 kts 135°
2026-04-24 09:09 22.00829 113.37116 27 ft 0 kts 135°
2026-04-24 09:11 22.00828 113.37117 27 ft 5 kts 135°
2026-04-24 09:12 22.00738 113.37219 27 ft 20 kts 134°
2026-04-24 09:12 22.00689 113.37273 27 ft 13 kts 134°
2026-04-24 09:12 22.00610 113.37326 27 ft 4 kts 181°
2026-04-24 09:12 22.00550 113.37286 27 ft 13 kts 222°
2026-04-24 09:13 22.00484 113.37220 29 ft 13 kts 225°
2026-04-24 09:13 22.00425 113.37150 27 ft 12 kts 226°
2026-04-24 09:13 22.00365 113.37085 27 ft 12 kts 225°
2026-04-24 09:13 22.00306 113.37022 27 ft 12 kts 224°
2026-04-24 09:14 22.00248 113.36961 27 ft 11 kts 224°
2026-04-24 09:14 22.00192 113.36902 27 ft 11 kts 224°
2026-04-24 09:14 22.00137 113.36844 27 ft 11 kts 225°
2026-04-24 09:14 22.00084 113.36787 27 ft 11 kts 225°
2026-04-24 09:15 22.00033 113.36733 28 ft 10 kts 223°
2026-04-24 09:15 21.99976 113.36673 28 ft 15 kts 224°
2026-04-24 09:15 21.99887 113.36577 28 ft 21 kts 225°
2026-04-24 09:15 21.99771 113.36452 28 ft 27 kts 222°
2026-04-24 09:16 21.99625 113.36298 27 ft 32 kts 225°
2026-04-24 09:16 21.99546 113.36218 27 ft 11 kts 214°
2026-04-24 09:16 21.99522 113.36205 28 ft 4 kts 197°
2026-04-24 09:16 21.99501 113.36206 26 ft 3 kts 164°
2026-04-24 09:17 21.99477 113.36228 26 ft 0 kts 134°
2026-04-24 09:22 21.99476 113.36230 26 ft 2 kts 134°
2026-04-24 09:22 21.99444 113.36266 27 ft 12 kts 132°
2026-04-24 09:23 21.99447 113.36363 27 ft 13 kts 45°
2026-04-24 09:23 21.99450 113.36366 27 ft 0 kts 44°
2026-04-24 09:24 21.99451 113.36366 27 ft 1 kts 44°
2026-04-24 09:24 21.99674 113.36600 29 ft 93 kts 43°
2026-04-24 09:24 22.00327 113.37315 170 ft 165 kts 44°
2026-04-24 09:25 22.01099 113.38378 1063 ft 192 kts 54°
2026-04-24 09:25 22.01770 113.39655 2392 ft 199 kts 56°
2026-04-24 09:25 22.02741 113.40783 3674 ft 216 kts 32°
2026-04-24 09:25 22.03982 113.41750 5130 ft 223 kts 43°
2026-04-24 09:26 22.05115 113.42906 6557 ft 226 kts 43°
2026-04-24 09:26 22.06277 113.44062 7848 ft 228 kts 40°
2026-04-24 09:26 22.07477 113.45182 9038 ft 231 kts 39°
2026-04-24 09:26 22.08715 113.46330 10014 ft 238 kts 38°
2026-04-24 09:27 22.09972 113.47498 10834 ft 239 kts 38°
2026-04-24 09:27 22.11240 113.48680 11446 ft 248 kts 38°
2026-04-24 09:27 22.12579 113.49931 11909 ft 261 kts 38°
2026-04-24 09:27 22.13976 113.51241 12433 ft 272 kts 39°
2026-04-24 09:28 22.15415 113.52593 12959 ft 283 kts 38°
2026-04-24 09:28 22.16950 113.54037 13502 ft 294 kts 39°
2026-04-24 09:28 22.18498 113.55497 13999 ft 306 kts 39°
2026-04-24 09:28 22.20129 113.57037 14477 ft 318 kts 39°
2026-04-24 09:29 22.21827 113.58638 14959 ft 329 kts 39°
2026-04-24 09:29 22.23584 113.60295 15451 ft 341 kts 39°
2026-04-24 09:29 22.25408 113.62004 15956 ft 351 kts 38°
2026-04-24 09:29 22.27299 113.63728 16459 ft 361 kts 38°
2026-04-24 09:30 22.29251 113.65490 16961 ft 370 kts 38°
2026-04-24 09:30 22.31251 113.67293 17469 ft 378 kts 38°
2026-04-24 09:30 22.33290 113.69135 17988 ft 386 kts 38°
2026-04-24 09:30 22.35366 113.71013 18487 ft 393 kts 38°
2026-04-24 09:31 22.37477 113.72927 18937 ft 399 kts 38°
2026-04-24 09:31 22.39621 113.74872 19394 ft 405 kts 38°
2026-04-24 09:31 22.41765 113.76821 19836 ft 410 kts 38°
2026-04-24 09:31 22.43961 113.78817 20303 ft 415 kts 38°
2026-04-24 09:32 22.46179 113.80834 20775 ft 419 kts 37°
2026-04-24 09:32 22.48417 113.82870 21260 ft 423 kts 37°
2026-04-24 09:32 22.50677 113.84927 21729 ft 426 kts 37°
2026-04-24 09:32 22.52951 113.86998 22252 ft 429 kts 37°
2026-04-24 09:33 22.55247 113.89089 22755 ft 432 kts 37°
2026-04-24 09:33 22.57563 113.91201 23274 ft 435 kts 36°
2026-04-24 09:33 22.59867 113.93303 23756 ft 438 kts 36°
2026-04-24 09:33 22.62201 113.95433 24188 ft 440 kts 36°
2026-04-24 09:34 22.64546 113.97574 24633 ft 442 kts 36°
2026-04-24 09:34 22.66916 113.99702 25065 ft 442 kts 31°
2026-04-24 09:34 22.69590 114.01218 25491 ft 429 kts 10°
2026-04-24 09:34 22.72478 114.01738 25979 ft 416 kts 354°
2026-04-24 09:35 22.75311 114.01486 26484 ft 403 kts 339°
2026-04-24 09:35 22.77937 114.00526 26977 ft 396 kts 329°
2026-04-24 09:35 22.80473 113.99354 27458 ft 396 kts 328°
2026-04-24 09:35 22.82999 113.98164 27959 ft 396 kts 328°
2026-04-24 09:36 22.85538 113.96999 28463 ft 397 kts 328°
2026-04-24 09:36 22.88089 113.95852 28978 ft 396 kts 328°
2026-04-24 09:36 22.90626 113.94696 29509 ft 394 kts 326°
2026-04-24 09:36 22.92265 113.93875 29856 ft 392 kts 324°
2026-04-24 09:37 22.94716 113.92587 30341 ft 390 kts 323°
2026-04-24 09:37 22.97965 113.90854 30951 ft 388 kts 323°
2026-04-24 09:37 23.00365 113.89590 31421 ft 386 kts 323°
2026-04-24 09:37 23.01998 113.88737 31739 ft 385 kts 323°
2026-04-24 09:38 23.05213 113.87117 32363 ft 389 kts 329°
2026-04-24 09:38 23.07030 113.86651 32671 ft 407 kts 343°
2026-04-24 09:38 23.10872 113.87066 33335 ft 436 kts
2026-04-24 09:38 23.12785 113.87962 33609 ft 453 kts 22°
2026-04-24 09:39 23.16236 113.90676 33986 ft 466 kts 30°
2026-04-24 09:39 23.17920 113.92144 34133 ft 470 kts 31°
2026-04-24 09:39 23.20449 113.94399 34365 ft 472 kts 31°
2026-04-24 09:39 23.23002 113.96676 34595 ft 475 kts 31°
2026-04-24 09:40 23.25565 113.98948 34865 ft 477 kts 32°
2026-04-24 09:40 23.28139 114.01249 35063 ft 480 kts 31°
2026-04-24 09:40 23.33459 114.05778 35121 ft 491 kts 30°
2026-04-24 09:41 23.38938 114.10415 35125 ft 505 kts 30°
2026-04-24 09:41 23.44536 114.15199 35134 ft 518 kts 31°
2026-04-24 09:42 23.50282 114.20135 35116 ft 534 kts 31°
2026-04-24 09:42 23.56156 114.25197 35108 ft 542 kts 31°
2026-04-24 09:43 23.62076 114.30289 35115 ft 547 kts 31°
2026-04-24 09:43 23.68093 114.35411 35124 ft 549 kts 30°
2026-04-24 09:44 23.74223 114.40416 35106 ft 548 kts 29°
2026-04-24 09:44 23.80314 114.45370 35106 ft 544 kts 30°
2026-04-24 09:45 23.86368 114.50332 35114 ft 544 kts 30°
2026-04-24 09:45 23.92426 114.55316 35111 ft 546 kts 30°
2026-04-24 09:46 23.98509 114.60329 35114 ft 548 kts 30°
2026-04-24 09:46 24.04605 114.65359 35185 ft 549 kts 30°
2026-04-24 09:47 24.10716 114.70400 35123 ft 551 kts 30°
2026-04-24 09:47 24.16799 114.75440 35137 ft 552 kts 30°
2026-04-24 09:48 24.22940 114.80527 35116 ft 553 kts 30°
2026-04-24 09:48 24.29409 114.84830 35118 ft 535 kts 14°
2026-04-24 09:49 24.32861 114.86254 35119 ft 523 kts
2026-04-24 09:49 24.36367 114.87154 35131 ft 516 kts
2026-04-24 09:49 24.43403 114.88754 35122 ft 516 kts
2026-04-24 09:50 24.50429 114.90304 35146 ft 515 kts
2026-04-24 09:50 24.57443 114.92155 35131 ft 520 kts
2026-04-24 09:51 24.64496 114.93957 35136 ft 520 kts
2026-04-24 09:51 24.71517 114.95686 35146 ft 522 kts
2026-04-24 09:52 24.78599 114.97438 35130 ft 522 kts
2026-04-24 09:52 24.85682 114.99163 35124 ft 521 kts
2026-04-24 09:53 24.92766 115.00880 35132 ft 521 kts
2026-04-24 09:53 24.99861 115.02602 35126 ft 523 kts
2026-04-24 09:54 25.06962 115.04337 35119 ft 523 kts
2026-04-24 09:54 25.14064 115.06076 35131 ft 522 kts
2026-04-24 09:55 25.21169 115.07817 35120 ft 522 kts
2026-04-24 09:55 25.28273 115.09555 35131 ft 524 kts
2026-04-24 09:56 25.31777 115.10125 35110 ft 506 kts 349°
2026-04-24 09:56 25.35217 115.09953 35130 ft 485 kts 339°
2026-04-24 09:56 25.38464 115.09206 35128 ft 469 kts 330°
2026-04-24 09:56 25.41439 115.07937 35130 ft 450 kts 321°
2026-04-24 09:57 25.47089 115.04928 35125 ft 451 kts 321°
2026-04-24 09:57 25.52778 115.01960 35164 ft 453 kts 322°
2026-04-24 09:58 25.58489 114.99019 35139 ft 452 kts 322°
2026-04-24 09:58 25.64188 114.96090 35123 ft 451 kts 322°
2026-04-24 09:59 25.69868 114.93163 35120 ft 450 kts 322°
2026-04-24 09:59 25.75704 114.90508 35107 ft 475 kts 337°
2026-04-24 10:00 25.79090 114.90294 35132 ft 504 kts 353°
2026-04-24 10:00 25.82611 114.91186 35188 ft 534 kts 12°
2026-04-24 10:00 25.85917 114.93233 35143 ft 558 kts 31°
2026-04-24 10:00 25.88775 114.96211 35167 ft 567 kts 40°
2026-04-24 10:01 25.94087 115.02746 35093 ft 571 kts 44°
2026-04-24 10:01 25.99339 115.09361 35118 ft 571 kts 43°
2026-04-24 10:02 26.04705 115.15874 35136 ft 571 kts 41°
2026-04-24 10:02 26.10143 115.22333 35141 ft 572 kts 41°
2026-04-24 10:03 26.15546 115.28745 35115 ft 572 kts 41°
2026-04-24 10:03 26.20982 115.35229 35112 ft 573 kts 41°
2026-04-24 10:04 26.26414 115.41729 35130 ft 574 kts 41°
2026-04-24 10:04 26.31851 115.48256 35148 ft 575 kts 41°
2026-04-24 10:05 26.37287 115.54778 35138 ft 573 kts 41°
2026-04-24 10:05 26.42703 115.61284 35124 ft 571 kts 42°
2026-04-24 10:06 26.50791 115.71025 35180 ft 570 kts 42°
2026-04-24 10:07 26.56194 115.77542 35149 ft 571 kts 42°
2026-04-24 10:07 26.61591 115.84067 35146 ft 571 kts 42°
2026-04-24 10:08 26.66943 115.90542 35142 ft 571 kts 42°
2026-04-24 10:08 26.72341 115.97079 35180 ft 571 kts 42°
2026-04-24 10:09 26.77733 116.03624 35156 ft 571 kts 42°
2026-04-24 10:09 26.83121 116.10175 35143 ft 571 kts 42°
2026-04-24 10:10 26.88494 116.16718 35153 ft 570 kts 42°
2026-04-24 10:10 26.93866 116.23258 35146 ft 570 kts 42°
2026-04-24 10:11 26.99266 116.29763 35158 ft 570 kts 42°
2026-04-24 10:11 27.04675 116.36271 35147 ft 570 kts 42°
2026-04-24 10:12 27.10032 116.42741 35150 ft 570 kts 42°
2026-04-24 10:12 27.15454 116.49307 35150 ft 569 kts 42°
2026-04-24 10:13 27.20805 116.55795 35153 ft 569 kts 42°
2026-04-24 10:13 27.26259 116.62227 35142 ft 568 kts 41°
2026-04-24 10:14 27.31770 116.68583 35138 ft 568 kts 41°
2026-04-24 10:14 27.37267 116.74961 35150 ft 568 kts 41°
2026-04-24 10:15 27.42742 116.81360 35151 ft 567 kts 41°
2026-04-24 10:15 27.48202 116.87756 35123 ft 566 kts 41°
2026-04-24 10:16 27.53660 116.94142 35145 ft 566 kts 41°
2026-04-24 10:16 27.59152 117.00491 35161 ft 565 kts 41°
2026-04-24 10:17 27.64662 117.06845 35163 ft 564 kts 41°
2026-04-24 10:17 27.70128 117.13170 35168 ft 562 kts 41°
2026-04-24 10:18 27.75583 117.19502 35145 ft 561 kts 41°
2026-04-24 10:18 27.81023 117.25823 35205 ft 561 kts 41°
2026-04-24 10:19 27.86458 117.32151 35157 ft 561 kts 42°
2026-04-24 10:19 27.91858 117.38452 35147 ft 560 kts 42°
2026-04-24 10:20 27.97267 117.44770 35164 ft 559 kts 42°
2026-04-24 10:20 28.02665 117.51084 35177 ft 557 kts 42°
2026-04-24 10:21 28.08056 117.57402 35172 ft 557 kts 43°
2026-04-24 10:21 28.13450 117.63729 35168 ft 558 kts 43°
2026-04-24 10:22 28.18805 117.70019 35161 ft 558 kts 43°
2026-04-24 10:22 28.24191 117.76359 35171 ft 557 kts 43°
2026-04-24 10:23 28.29571 117.82700 35167 ft 557 kts 43°
2026-04-24 10:23 28.34956 117.89059 35156 ft 558 kts 43°
2026-04-24 10:24 28.40331 117.95415 35165 ft 558 kts 43°
2026-04-24 10:24 28.44781 118.00741 35187 ft 559 kts 44°
2026-04-24 10:25 28.50056 118.07239 35150 ft 559 kts 44°
2026-04-24 10:25 28.55314 118.13759 35163 ft 559 kts 44°
2026-04-24 10:26 28.60580 118.20274 35163 ft 559 kts 44°
2026-04-24 10:26 28.65818 118.26744 35186 ft 559 kts 44°
2026-04-24 10:27 28.71121 118.33300 35170 ft 559 kts 44°
2026-04-24 10:27 28.76343 118.39769 35152 ft 558 kts 44°
2026-04-24 10:28 28.81602 118.46295 35172 ft 559 kts 44°
2026-04-24 10:28 28.86861 118.52833 35203 ft 559 kts 44°
2026-04-24 10:29 28.92117 118.59378 35178 ft 559 kts 44°
2026-04-24 10:29 28.97364 118.65924 35172 ft 558 kts 44°
2026-04-24 10:30 29.02603 118.72468 35175 ft 559 kts 44°
2026-04-24 10:30 29.07850 118.79033 35195 ft 560 kts 44°
2026-04-24 10:31 29.13105 118.85619 35209 ft 561 kts 44°
2026-04-24 10:31 29.18366 118.92226 35141 ft 560 kts 45°
2026-04-24 10:31 29.20985 118.95519 34765 ft 558 kts 45°
2026-04-24 10:32 29.23570 118.98766 34368 ft 547 kts 45°
2026-04-24 10:32 29.26124 119.01983 33988 ft 544 kts 45°
2026-04-24 10:32 29.28640 119.05155 33555 ft 544 kts 45°
2026-04-24 10:32 29.31184 119.08364 33069 ft 545 kts 45°
2026-04-24 10:33 29.33745 119.11596 32465 ft 548 kts 45°
2026-04-24 10:33 29.36318 119.14844 31710 ft 552 kts 45°
2026-04-24 10:33 29.38887 119.18097 30993 ft 546 kts 45°
2026-04-24 10:33 29.41414 119.21308 30281 ft 539 kts 44°
2026-04-24 10:34 29.43915 119.24488 29528 ft 536 kts 44°
2026-04-24 10:34 29.46406 119.27653 28699 ft 535 kts 44°
2026-04-24 10:34 29.48891 119.30812 27910 ft 531 kts 44°
2026-04-24 10:34 29.51357 119.33952 26963 ft 527 kts 44°
2026-04-24 10:35 29.53815 119.37081 26068 ft 527 kts 45°
2026-04-24 10:35 29.56274 119.40212 25200 ft 526 kts 45°
2026-04-24 10:35 29.58715 119.43322 24343 ft 517 kts 45°
2026-04-24 10:35 29.61099 119.46354 23482 ft 506 kts 45°
2026-04-24 10:36 29.63434 119.49261 22541 ft 493 kts 40°
2026-04-24 10:36 29.66039 119.51723 21599 ft 476 kts 31°
2026-04-24 10:36 29.68762 119.53791 20677 ft 463 kts 27°
2026-04-24 10:36 29.71477 119.55713 19775 ft 452 kts 27°
2026-04-24 10:37 29.74113 119.57622 18910 ft 443 kts 28°
2026-04-24 10:37 29.76673 119.59538 17991 ft 433 kts 28°
2026-04-24 10:37 29.79174 119.61399 17070 ft 425 kts 30°
2026-04-24 10:37 29.81587 119.63330 16134 ft 419 kts 31°
2026-04-24 10:38 29.83971 119.65241 15385 ft 418 kts 31°
2026-04-24 10:38 29.86326 119.67066 15160 ft 395 kts 28°
2026-04-24 10:38 29.88669 119.68569 14919 ft 377 kts 24°
2026-04-24 10:38 29.90997 119.69908 14704 ft 372 kts 23°
2026-04-24 10:39 29.93298 119.71225 14467 ft 370 kts 23°
2026-04-24 10:39 29.95596 119.72569 14249 ft 370 kts 24°
2026-04-24 10:39 29.97875 119.73932 14011 ft 369 kts 25°
2026-04-24 10:39 30.00147 119.75306 13925 ft 369 kts 25°
2026-04-24 10:40 30.02399 119.76741 13878 ft 370 kts 32°
2026-04-24 10:40 30.04220 119.78833 13887 ft 374 kts 53°
2026-04-24 10:40 30.05520 119.81461 13589 ft 379 kts 61°
2026-04-24 10:40 30.06707 119.84170 12938 ft 374 kts 62°
2026-04-24 10:41 30.07848 119.86823 12323 ft 363 kts 62°
2026-04-24 10:41 30.08969 119.89396 11721 ft 353 kts 62°
2026-04-24 10:41 30.10074 119.91886 11132 ft 344 kts 62°
2026-04-24 10:41 30.11151 119.94288 10557 ft 337 kts 62°
2026-04-24 10:42 30.12226 119.96678 9706 ft 337 kts 62°
2026-04-24 10:42 30.13320 119.99118 8713 ft 338 kts 63°
2026-04-24 10:42 30.14077 120.01640 7750 ft 339 kts 83°
2026-04-24 10:42 30.13880 120.04328 6845 ft 337 kts 107°
2026-04-24 10:43 30.12808 120.06713 5850 ft 336 kts 129°
2026-04-24 10:43 30.11275 120.08709 5272 ft 323 kts 126°
2026-04-24 10:43 30.10483 120.10999 5072 ft 299 kts 95°
2026-04-24 10:43 30.10802 120.13248 4938 ft 276 kts 62°
2026-04-24 10:44 30.11900 120.14939 4878 ft 254 kts 49°
2026-04-24 10:44 30.12934 120.16547 4602 ft 245 kts 55°
2026-04-24 10:44 30.13840 120.18188 4292 ft 239 kts 59°
2026-04-24 10:44 30.14626 120.19857 3982 ft 234 kts 62°
2026-04-24 10:45 30.15347 120.21495 3694 ft 224 kts 63°
2026-04-24 10:45 30.16034 120.23071 3386 ft 215 kts 63°
2026-04-24 10:45 30.16692 120.24576 3098 ft 205 kts 63°
2026-04-24 10:45 30.17321 120.26010 2839 ft 195 kts 63°
2026-04-24 10:46 30.17910 120.27356 2579 ft 180 kts 63°
2026-04-24 10:46 30.18449 120.28582 2385 ft 161 kts 63°
2026-04-24 10:46 30.19008 120.29646 2145 ft 154 kts 44°
2026-04-24 10:46 30.19971 120.30235 1784 ft 155 kts 14°
2026-04-24 10:47 30.21024 120.30239 1703 ft 155 kts 349°
2026-04-24 10:47 30.22006 120.29702 1531 ft 158 kts 320°
2026-04-24 10:47 30.22598 120.28652 1558 ft 168 kts 283°
2026-04-24 10:47 30.22469 120.27276 1705 ft 174 kts 253°
2026-04-24 10:48 30.22061 120.25939 1883 ft 177 kts 246°
2026-04-24 10:48 30.21499 120.24674 1992 ft 177 kts 237°
2026-04-24 10:48 30.20715 120.23600 1982 ft 175 kts 211°
2026-04-24 10:48 30.19620 120.23060 1991 ft 173 kts 200°
2026-04-24 10:49 30.18509 120.22507 2030 ft 174 kts 204°
2026-04-24 10:49 30.17411 120.21923 2092 ft 172 kts 201°
2026-04-24 10:49 30.16238 120.21805 2290 ft 172 kts 168°
2026-04-24 10:49 30.15161 120.22375 2470 ft 173 kts 134°
2026-04-24 10:50 30.14634 120.23587 2662 ft 172 kts 90°
2026-04-24 10:50 30.14959 120.24900 2904 ft 172 kts 68°
2026-04-24 10:50 30.15410 120.26175 2986 ft 178 kts 66°
2026-04-24 10:50 30.15953 120.27507 2736 ft 181 kts 63°
2026-04-24 10:51 30.16517 120.28810 2491 ft 175 kts 63°
2026-04-24 10:51 30.17055 120.30034 2257 ft 166 kts 63°
2026-04-24 10:51 30.17560 120.31181 2041 ft 158 kts 64°
2026-04-24 10:51 30.18045 120.32284 1845 ft 148 kts 64°
2026-04-24 10:52 30.18493 120.33304 1660 ft 139 kts 64°
2026-04-24 10:52 30.18921 120.34276 1468 ft 133 kts 64°
2026-04-24 10:52 30.19339 120.35227 1296 ft 133 kts 64°
2026-04-24 10:52 30.19762 120.36187 1131 ft 135 kts 65°
2026-04-24 10:53 30.20183 120.37144 945 ft 132 kts 65°
2026-04-24 10:53 30.20599 120.38091 770 ft 133 kts 64°
2026-04-24 10:53 30.21021 120.39050 608 ft 134 kts 63°
2026-04-24 10:53 30.21457 120.40014 412 ft 134 kts 63°
2026-04-24 10:54 30.21888 120.40970 246 ft 134 kts 65°
2026-04-24 10:54 30.22307 120.41947 86 ft 135 kts 61°
2026-04-24 10:54 30.22711 120.42895 31 ft 123 kts 59°
2026-04-24 10:54 30.22943 120.43415 34 ft 35 kts 62°
2026-04-24 10:55 30.23037 120.43589 34 ft 33 kts 52°
2026-04-24 10:55 30.23221 120.43770 31 ft 43 kts 34°
2026-04-24 10:55 30.23375 120.43957 31 ft 21 kts 60°
2026-04-24 10:55 30.23550 120.43942 31 ft 37 kts 320°
2026-04-24 10:56 30.23821 120.43764 30 ft 53 kts 334°
2026-04-24 10:56 30.24042 120.43638 31 ft 40 kts 334°
2026-04-24 10:56 30.24339 120.43458 30 ft 56 kts 334°
2026-04-24 10:56 30.24518 120.43293 31 ft 9 kts 269°
2026-04-24 10:57 30.24467 120.43153 31 ft 29 kts 243°
2026-04-24 10:57 30.24357 120.42921 31 ft 7 kts 216°
2026-04-24 10:57 30.24296 120.42896 31 ft 7 kts 171°
2026-04-24 10:57 30.24255 120.42945 29 ft 0 kts 115°
2026-04-24 10:58 30.24253 120.42949 29 ft 0 kts 116°